Weather Roundup
Issued by NWS Springfield, MO

Home | Current Version | Previous Version | Text Only | Print | Product List | Glossary On
Versions: 1 2 3 4 5 6 7 8 9 10 11 12 13 14 15 16 17 18 19 20 21 22 23 24 25 26 27 28 29 30 31 32 33 34 35 36 37 38 39 40 41 42 43 44 45 46 47 48 49 50
000
NZUS99 KSGF 280757
HRRSGF

HOURLY WEATHER
NATIONAL WEATHER SERVICE SPRINGFIELD MO
300 AM CDT FRI JUL 28 2017

......SGF CWA......

CITY           SKY/WX    TMP DP  RH WIND       PRES   REMARKS
SPRINGFIELD    CLOUDY    77  76  96 N3        29.91S
JOPLIN         LGT RAIN  76  76 100 N3        29.90F
WEST PLAINS    CLOUDY    76  74  93 CALM      29.92R
ROLLA          PTCLDY    71  71 100 NW3       29.92F

......SURROUNDING SGF CWA......

CITY           SKY/WX    TMP DP  RH WIND       PRES   REMARKS
CHANUTE        CLEAR     78  74  87 N7        29.92F
PARSONS        CLEAR     76  74  93 CALM      29.91F FOG
COFFEYVILLE    PTCLDY    77  75  93 N5        29.90F
EMPORIA        CLOUDY    72  68  87 NE7       29.96S
HARRISON AR    CLOUDY    76  76 100 W3        29.92R

......KANSAS AND MISSOURI......

CITY           SKY/WX    TMP DP  RH WIND       PRES   REMARKS
KANSAS CTY INT MOCLDY    73  70  90 NE8       29.96S
SEDALIA        CLEAR     73  73 100 N5        29.94S FOG
ST JOSEPH      CLEAR     69  66  90 N8        29.96S
ST LOUIS       CLOUDY    78  72  81 NE10      29.88S
WICHITA        CLOUDY    77  71  82 NE10      29.95F
TOPEKA         CLEAR     72  69  90 CALM      29.95F
OLATHE         CLEAR     73  72  96 N5        29.95S

......TENNESSEE......

CITY           SKY/WX    TMP DP  RH WIND       PRES   REMARKS
MEMPHIS        NOT AVBL
NASHVILLE      CLOUDY    76  72  87 CALM      29.89S

......ARKANSAS.......

CITY           SKY/WX    TMP DP  RH WIND       PRES   REMARKS
FAYETTEVILLE   LGT RAIN  76  76 100 CALM      29.92S
FT SMITH       LGT RAIN  80  77  90 NE3       29.86S
LITTLE ROCK    CLOUDY    81  78  91 S6        29.87F

......OKLAHOMA.......

CITY           SKY/WX    TMP DP  RH WIND       PRES   REMARKS
TULSA          CLOUDY    78  76  93 NW6       29.86S
PONCA CITY     PTCLDY    78  72  81 N7        29.91F
MCALESTER      CLOUDY    83  72  69 S6        29.90R
OKLAHOMA CITY  MOCLDY    79  75  87 N6        29.92S

......IOWA............

CITY           SKY/WX    TMP DP  RH WIND       PRES   REMARKS
DES MOINES     NOT AVBL
QUAD CITIES    CLEAR     68  59  73 CALM      29.97F

......ILLINOIS........

CITY           SKY/WX    TMP DP  RH WIND       PRES   REMARKS
QUINCY         NOT AVBL
CHICAGO        PTCLDY    69  62  78 N10       29.94S




USA.gov is the U.S. government's official web portal to all federal, state and local government web resources and services.